| time (UTC) | temp C | wind direction | speed KPH | gust KPH | rain 1hr cm | rain 24hr cm | rain mn cm | humidity % | barometer mb |
| 20260507073519 | 9 | 325 | 0.0 | 4.8 | 0.00 | 0.33 | 0.00 | 88 | 1016.6 |
| 20260507073017 | 9 | 325 | 0.0 | 4.8 | 0.00 | 0.33 | 0.00 | 88 | 1016.6 |
| 20260507072510 | 9 | 325 | 0.0 | 4.8 | 0.00 | 0.33 | 0.00 | 88 | 1016.6 |
| 20260507072008 | 9 | 324 | 3.2 | 4.8 | 0.00 | 0.33 | 0.00 | 88 | 1016.5 |
| 20260507071507 | 8 | 290 | 0.0 | 4.8 | 0.00 | 0.33 | 0.00 | 88 | 1016.5 |
| 20260507071009 | 8 | 329 | 1.6 | 6.4 | 0.00 | 0.33 | 0.00 | 88 | 1016.6 |
| 20260507070505 | 8 | 324 | 3.2 | 6.4 | 0.00 | 0.33 | 0.00 | 88 | 1016.5 |
| 20260507070004 | 8 | 304 | 1.6 | 4.8 | 0.00 | 0.36 | 0.00 | 88 | 1016.5 |
| 20260507065501 | 8 | 323 | 0.0 | 4.8 | 0.00 | 0.36 | 0.00 | 88 | 1016.4 |
| 20260507065004 | 8 | 323 | 0.0 | 3.2 | 0.00 | 0.36 | 0.00 | 88 | 1016.4 |
| 20260507064601 | 8 | 323 | 0.0 | 4.8 | 0.00 | 0.36 | 0.00 | 88 | 1016.4 |
| 20260507064054 | 8 | 323 | 0.0 | 4.8 | 0.00 | 0.36 | 0.00 | 88 | 1016.3 |
| 20260507063548 | 8 | 327 | 0.0 | 4.8 | 0.00 | 0.36 | 0.00 | 88 | 1016.3 |
| 20260507063045 | 8 | 322 | 0.0 | 3.2 | 0.00 | 0.36 | 0.00 | 88 | 1016.3 |
| 20260507062543 | 8 | 322 | 0.0 | 4.8 | 0.00 | 0.36 | 0.00 | 88 | 1016.2 |
| 20260507062040 | 8 | 322 | 1.6 | 4.8 | 0.00 | 0.36 | 0.00 | 88 | 1016.2 |
| 20260507061535 | 8 | 5 | 0.0 | 3.2 | 0.00 | 0.36 | 0.00 | 88 | 1016.1 |
| 20260507061030 | 8 | 30 | 0.0 | 4.8 | 0.00 | 0.36 | 0.00 | 88 | 1016.1 |
| 20260507060526 | 8 | 320 | 0.0 | 4.8 | 0.00 | 0.36 | 0.00 | 88 | 1016.1 |
| 20260507060016 | 8 | 320 | 0.0 | 1.6 | 0.00 | 0.36 | 0.00 | 88 | 1016.0 |
| 20260507055512 | 8 | 320 | 0.0 | 6.4 | 0.00 | 0.46 | 0.00 | 88 | 1016.0 |
| 20260507055013 | 8 | 320 | 0.0 | 6.4 | 0.00 | 0.46 | 0.00 | 88 | 1016.0 |
| 20260507054512 | 8 | 283 | 0.0 | 3.2 | 0.00 | 0.46 | 0.00 | 87 | 1015.9 |
| 20260507054003 | 8 | 283 | 1.6 | 4.8 | 0.00 | 0.46 | 0.00 | 87 | 1015.8 |
| 20260507053554 | 8 | 320 | 0.0 | 4.8 | 0.00 | 0.46 | 0.00 | 87 | 1015.8 |
| 20260507053055 | 8 | 315 | 0.0 | 4.8 | 0.00 | 0.46 | 0.00 | 87 | 1015.8 |
| 20260507052551 | 8 | 311 | 0.0 | 4.8 | 0.00 | 0.46 | 0.00 | 87 | 1015.8 |
| 20260507052041 | 8 | 311 | 0.0 | 4.8 | 0.00 | 0.46 | 0.00 | 86 | 1015.8 |
| 20260507051539 | 8 | 311 | 1.6 | 4.8 | 0.00 | 0.46 | 0.00 | 86 | 1015.7 |
| 20260507051041 | 8 | 317 | 1.6 | 4.8 | 0.00 | 0.46 | 0.00 | 86 | 1015.7 |
| 20260507050538 | 8 | 271 | 0.0 | 3.2 | 0.00 | 0.46 | 0.00 | 86 | 1015.6 |
| 20260507050035 | 8 | 271 | 0.0 | 0.0 | 0.00 | 0.46 | 0.00 | 86 | 1015.4 |
| 20260507045536 | 8 | 271 | 0.0 | 1.6 | 0.00 | 0.58 | 0.00 | 86 | 1015.3 |
| 20260507045033 | 8 | 271 | 0.0 | 0.0 | 0.00 | 0.58 | 0.00 | 86 | 1015.3 |
| 20260507044537 | 8 | 271 | 0.0 | 0.0 | 0.00 | 0.58 | 0.00 | 86 | 1015.2 |
| 20260507044030 | 8 | 271 | 0.0 | 0.0 | 0.00 | 0.58 | 0.00 | 86 | 1015.1 |
| 20260507043529 | 8 | 271 | 0.0 | 0.0 | 0.00 | 0.58 | 0.00 | 86 | 1015.0 |
| 20260507043027 | 8 | 271 | 0.0 | 0.0 | 0.00 | 0.58 | 0.00 | 86 | 1015.0 |
| 20260507042527 | 8 | 271 | 0.0 | 0.0 | 0.00 | 0.58 | 0.00 | 86 | 1015.0 |
| 20260507042024 | 8 | 271 | 0.0 | 0.0 | 0.00 | 0.58 | 0.00 | 86 | 1014.9 |
| 20260507041521 | 8 | 271 | 0.0 | 0.0 | 0.00 | 0.58 | 0.00 | 87 | 1014.9 |
| 20260507041020 | 8 | 271 | 0.0 | 0.0 | 0.00 | 0.58 | 0.00 | 86 | 1014.9 |
| 20260507040520 | 8 | 271 | 0.0 | 0.0 | 0.00 | 0.58 | 0.00 | 87 | 1014.8 |
| 20260507040018 | 8 | 271 | 0.0 | 0.0 | 0.00 | 0.58 | 0.00 | 87 | 1014.8 |
| 20260507035516 | 8 | 271 | 0.0 | 0.0 | 0.00 | 0.79 | 0.00 | 86 | 1014.8 |
| 20260507035015 | 8 | 271 | 0.0 | 0.0 | 0.00 | 0.79 | 0.00 | 86 | 1014.7 |
| 20260507034515 | 8 | 271 | 0.0 | 0.0 | 0.00 | 0.79 | 0.00 | 86 | 1014.7 |
| 20260507034014 | 8 | 271 | 0.0 | 0.0 | 0.00 | 0.79 | 0.00 | 86 | 1014.8 |
| 20260507033514 | 8 | 271 | 0.0 | 1.6 | 0.00 | 0.79 | 0.00 | 86 | 1014.7 |
| 20260507033019 | 8 | 271 | 0.0 | 1.6 | 0.00 | 0.79 | 0.00 | 86 | 1014.7 |
| 20260507032511 | 8 | 271 | 0.0 | 1.6 | 0.00 | 0.79 | 0.00 | 86 | 1014.7 |
| 20260507032013 | 8 | 271 | 0.0 | 0.0 | 0.00 | 0.79 | 0.00 | 86 | 1014.7 |
| 20260507031507 | 8 | 271 | 0.0 | 1.6 | 0.00 | 0.79 | 0.00 | 86 | 1014.6 |
| 20260507031008 | 8 | 271 | 0.0 | 0.0 | 0.00 | 0.79 | 0.00 | 86 | 1014.6 |
| 20260507030507 | 8 | 271 | 0.0 | 0.0 | 0.00 | 0.79 | 0.00 | 86 | 1014.6 |
| 20260507030007 | 8 | 271 | 0.0 | 0.0 | 0.00 | 0.79 | 0.00 | 86 | 1014.5 |
| 20260507025506 | 8 | 271 | 0.0 | 0.0 | 0.00 | 1.02 | 0.00 | 86 | 1014.5 |
| 20260507025002 | 8 | 271 | 0.0 | 0.0 | 0.00 | 1.02 | 0.00 | 86 | 1014.5 |
| 20260507024503 | 8 | 271 | 0.0 | 0.0 | 0.00 | 1.02 | 0.00 | 86 | 1014.5 |
| 20260507024002 | 8 | 271 | 0.0 | 0.0 | 0.00 | 1.02 | 0.00 | 86 | 1014.5 |
| 20260507023601 | 8 | 271 | 0.0 | 0.0 | 0.00 | 1.02 | 0.00 | 86 | 1014.5 |
| 20260507023107 | 8 | 271 | 0.0 | 0.0 | 0.00 | 1.02 | 0.00 | 86 | 1014.4 |
| 20260507022600 | 8 | 271 | 0.0 | 0.0 | 0.00 | 1.02 | 0.00 | 86 | 1014.4 |
| 20260507022503 | 8 | 271 | 0.0 | 0.0 | 0.00 | 1.02 | 0.00 | 86 | 1014.4 |
| 20260507022101 | 8 | 271 | 0.0 | 0.0 | 0.00 | 1.02 | 0.00 | 86 | 1014.3 |
| 20260507021602 | 8 | 271 | 0.0 | 0.0 | 0.00 | 1.02 | 0.00 | 86 | 1014.3 |
| 20260507021058 | 8 | 271 | 0.0 | 0.0 | 0.00 | 1.02 | 0.00 | 86 | 1014.3 |
| 20260507020559 | 8 | 271 | 0.0 | 0.0 | 0.00 | 1.02 | 0.00 | 86 | 1014.2 |
| 20260507020100 | 8 | 271 | 0.0 | 0.0 | 0.00 | 1.02 | 0.00 | 86 | 1014.3 |
| 20260507015552 | 8 | 271 | 0.0 | 3.2 | 0.00 | 1.14 | 0.00 | 86 | 1014.3 |
| 20260507015052 | 8 | 271 | 0.0 | 3.2 | 0.00 | 1.14 | 0.00 | 86 | 1014.3 |
| 20260507014600 | 8 | 22 | 0.0 | 0.0 | 0.00 | 1.14 | 0.00 | 86 | 1014.3 |
| 20260507014049 | 8 | 22 | 0.0 | 0.0 | 0.00 | 1.14 | 0.00 | 86 | 1014.3 |
| 20260507013549 | 8 | 22 | 0.0 | 0.0 | 0.00 | 1.14 | 0.00 | 87 | 1014.3 |
| 20260507013047 | 8 | 22 | 0.0 | 0.0 | 0.00 | 1.14 | 0.00 | 87 | 1014.3 |
| 20260507012546 | 8 | 22 | 0.0 | 0.0 | 0.00 | 1.14 | 0.00 | 87 | 1014.3 |
| 20260507012046 | 8 | 22 | 0.0 | 0.0 | 0.00 | 1.14 | 0.00 | 87 | 1014.3 |
| 20260507011544 | 8 | 22 | 0.0 | 0.0 | 0.00 | 1.14 | 0.00 | 87 | 1014.3 |
| 20260507011036 | 8 | 22 | 0.0 | 1.6 | 0.00 | 1.14 | 0.00 | 87 | 1014.2 |
| 20260507010536 | 8 | 22 | 0.0 | 3.2 | 0.00 | 1.14 | 0.00 | 87 | 1014.1 |
| 20260507010033 | 8 | 22 | 0.0 | 3.2 | 0.00 | 1.14 | 0.00 | 87 | 1014.1 |
| 20260507005525 | 8 | 22 | 0.0 | 1.6 | 0.00 | 1.32 | 0.00 | 87 | 1014.0 |
| 20260507005024 | 8 | 22 | 0.0 | 0.0 | 0.00 | 1.32 | 0.00 | 87 | 1014.0 |
| 20260507004520 | 8 | 22 | 0.0 | 0.0 | 0.00 | 1.32 | 0.00 | 87 | 1014.1 |
| 20260507004018 | 8 | 22 | 0.0 | 0.0 | 0.00 | 1.32 | 0.00 | 87 | 1014.1 |
| 20260507003507 | 8 | 22 | 0.0 | 0.0 | 0.00 | 1.32 | 0.00 | 87 | 1014.1 |
| 20260507003002 | 8 | 22 | 0.0 | 0.0 | 0.00 | 1.32 | 0.00 | 87 | 1014.1 |
| 20260507002503 | 8 | 22 | 0.0 | 0.0 | 0.00 | 1.32 | 0.00 | 87 | 1014.1 |
| 20260507002002 | 8 | 22 | 0.0 | 0.0 | 0.00 | 1.32 | 0.00 | 87 | 1014.0 |
| 20260507001501 | 8 | 22 | 0.0 | 0.0 | 0.00 | 1.32 | 0.00 | 87 | 1014.0 |
| 20260507001002 | 8 | 22 | 0.0 | 0.0 | 0.00 | 1.32 | 0.00 | 87 | 1014.0 |
| 20260507000501 | 8 | 22 | 0.0 | 0.0 | 0.00 | 1.32 | 0.00 | 87 | 1014.0 |
| 20260507000002 | 8 | 22 | 0.0 | 0.0 | 0.00 | 1.42 | 0.00 | 87 | 1014.0 |
| 20260506235503 | 8 | 22 | 0.0 | 0.0 | 0.00 | 1.42 | 0.00 | 87 | 1013.9 |
| 20260506235059 | 8 | 22 | 0.0 | 0.0 | 0.00 | 1.42 | 0.00 | 87 | 1013.9 |
| 20260506234548 | 8 | 22 | 0.0 | 3.2 | 0.00 | 1.42 | 0.00 | 87 | 1013.9 |
| 20260506234041 | 8 | 22 | 0.0 | 3.2 | 0.00 | 1.42 | 0.00 | 87 | 1013.8 |
| 20260506233530 | 8 | 59 | 0.0 | 1.6 | 0.00 | 1.42 | 0.00 | 87 | 1013.9 |
| 20260506233034 | 8 | 59 | 0.0 | 1.6 | 0.00 | 1.42 | 0.00 | 87 | 1013.9 |
| 20260506232530 | 8 | 59 | 0.0 | 0.0 | 0.00 | 1.42 | 0.00 | 87 | 1013.8 |
| 20260506232030 | 8 | 59 | 0.0 | 1.6 | 0.00 | 1.42 | 0.00 | 87 | 1013.9 |
| 20260506231531 | 8 | 59 | 0.0 | 1.6 | 0.00 | 1.42 | 0.00 | 87 | 1013.8 |
| 20260506231031 | 8 | 59 | 0.0 | 1.6 | 0.00 | 1.42 | 0.00 | 87 | 1013.8 |
| 20260506230531 | 8 | 60 | 0.0 | 3.2 | 0.00 | 1.42 | 0.00 | 87 | 1013.8 |
| 20260506230031 | 8 | 60 | 0.0 | 3.2 | 0.00 | 1.42 | 0.00 | 87 | 1013.7 |
| 20260506225531 | 8 | 331 | 0.0 | 3.2 | 0.00 | 1.55 | 0.00 | 87 | 1013.6 |
| 20260506225022 | 8 | 324 | 0.0 | 4.8 | 0.00 | 1.55 | 0.00 | 87 | 1013.5 |
| 20260506224516 | 8 | 298 | 0.0 | 3.2 | 0.00 | 1.55 | 0.00 | 87 | 1013.5 |
| 20260506224006 | 8 | 86 | 0.0 | 1.6 | 0.00 | 1.55 | 0.00 | 87 | 1013.5 |
| 20260506223502 | 8 | 344 | 0.0 | 3.2 | 0.00 | 1.55 | 0.00 | 87 | 1013.5 |
| 20260506223002 | 8 | 343 | 0.0 | 3.2 | 0.00 | 1.55 | 0.00 | 87 | 1013.3 |
| 20260506222503 | 8 | 71 | 0.0 | 3.2 | 0.00 | 1.55 | 0.00 | 87 | 1013.3 |
| 20260506222003 | 8 | 317 | 0.0 | 3.2 | 0.00 | 1.55 | 0.00 | 87 | 1013.3 |
| 20260506221502 | 8 | 317 | 0.0 | 4.8 | 0.00 | 1.55 | 0.00 | 87 | 1013.1 |
| 20260506221004 | 8 | 317 | 0.0 | 4.8 | 0.00 | 1.55 | 0.00 | 87 | 1013.1 |
| 20260506220502 | 8 | 348 | 0.0 | 4.8 | 0.00 | 1.55 | 0.00 | 87 | 1013.0 |
| 20260506220007 | 8 | 338 | 0.0 | 4.8 | 0.00 | 1.75 | 1.55 | 87 | 1013.0 |
| 20260506215502 | 8 | 349 | 0.0 | 6.4 | 0.00 | 1.75 | 1.55 | 87 | 1013.0 |
| 20260506215002 | 8 | 325 | 1.6 | 6.4 | 0.00 | 1.75 | 1.55 | 87 | 1013.0 |
| 20260506214502 | 8 | 338 | 0.0 | 4.8 | 0.00 | 1.75 | 1.55 | 87 | 1012.9 |
| 20260506214004 | 8 | 284 | 0.0 | 4.8 | 0.00 | 1.75 | 1.55 | 87 | 1012.9 |
| 20260506213559 | 8 | 312 | 0.0 | 9.7 | 0.00 | 1.75 | 1.55 | 87 | 1012.9 |
| 20260506213111 | 8 | 329 | 1.6 | 9.7 | 0.00 | 1.75 | 1.55 | 87 | 1012.8 |
| 20260506212551 | 8 | 294 | 0.0 | 8.0 | 0.00 | 1.75 | 1.55 | 88 | 1012.8 |
| 20260506212044 | 8 | 308 | 0.0 | 8.0 | 0.00 | 1.75 | 1.55 | 87 | 1012.8 |
| 20260506211543 | 8 | 325 | 0.0 | 6.4 | 0.00 | 1.75 | 1.55 | 88 | 1012.8 |
| 20260506211042 | 8 | 329 | 0.0 | 4.8 | 0.00 | 1.75 | 1.55 | 88 | 1012.7 |
| 20260506210534 | 8 | 327 | 0.0 | 9.7 | 0.00 | 1.75 | 1.55 | 88 | 1012.7 |
| 20260506210032 | 8 | 319 | 0.0 | 9.7 | 0.00 | 1.75 | 1.55 | 88 | 1012.8 |
| 20260506205533 | 8 | 325 | 0.0 | 4.8 | 0.00 | 1.85 | 1.55 | 88 | 1012.8 |
| 20260506205032 | 8 | 318 | 0.0 | 4.8 | 0.00 | 1.85 | 1.55 | 88 | 1012.8 |
| 20260506204530 | 8 | 344 | 0.0 | 3.2 | 0.00 | 1.85 | 1.55 | 88 | 1012.8 |
| 20260506204033 | 8 | 342 | 0.0 | 3.2 | 0.00 | 1.85 | 1.55 | 88 | 1012.7 |
| 20260506203530 | 9 | 340 | 0.0 | 4.8 | 0.00 | 1.85 | 1.55 | 88 | 1012.7 |
| 20260506203030 | 9 | 300 | 0.0 | 4.8 | 0.00 | 1.85 | 1.55 | 88 | 1012.7 |
| 20260506202530 | 9 | 275 | 0.0 | 8.0 | 0.00 | 1.85 | 1.55 | 88 | 1012.7 |
| 20260506202030 | 9 | 238 | 0.0 | 8.0 | 0.00 | 1.85 | 1.55 | 88 | 1012.6 |
| 20260506201528 | 9 | 17 | 0.0 | 3.2 | 0.00 | 1.85 | 1.55 | 88 | 1012.6 |
| 20260506201023 | 9 | 30 | 0.0 | 1.6 | 0.00 | 1.85 | 1.55 | 88 | 1012.6 |
| 20260506200515 | 9 | 28 | 0.0 | 1.6 | 0.00 | 1.85 | 1.55 | 88 | 1012.6 |
| 20260506200005 | 9 | 15 | 0.0 | 1.6 | 0.00 | 2.03 | 1.55 | 88 | 1012.5 |
| 20260506195504 | 9 | 15 | 0.0 | 3.2 | 0.00 | 2.03 | 1.55 | 88 | 1012.5 |
| 20260506195002 | 9 | 311 | 0.0 | 4.8 | 0.00 | 2.03 | 1.55 | 88 | 1012.5 |
| 20260506194502 | 9 | 311 | 0.0 | 4.8 | 0.00 | 2.03 | 1.55 | 88 | 1012.5 |
| 20260506194003 | 9 | 336 | 0.0 | 4.8 | 0.00 | 2.03 | 1.55 | 88 | 1012.4 |
| 20260506193600 | 9 | 103 | 0.0 | 3.2 | 0.00 | 2.03 | 1.55 | 88 | 1012.3 |
| 20260506193104 | 9 | 336 | 0.0 | 3.2 | 0.00 | 2.03 | 1.55 | 88 | 1012.2 |
| 20260506192555 | 9 | 327 | 0.0 | 4.8 | 0.00 | 2.03 | 1.55 | 88 | 1012.2 |
| 20260506192054 | 9 | 327 | 0.0 | 4.8 | 0.00 | 2.03 | 1.55 | 88 | 1012.2 |
| 20260506191546 | 9 | 327 | 0.0 | 4.8 | 0.00 | 2.03 | 1.55 | 88 | 1012.1 |
| 20260506191046 | 9 | 53 | 0.0 | 3.2 | 0.00 | 2.03 | 1.55 | 88 | 1012.1 |
| 20260506190537 | 9 | 51 | 0.0 | 6.4 | 0.00 | 2.03 | 1.55 | 88 | 1012.0 |
| 20260506190035 | 9 | 334 | 0.0 | 6.4 | 0.00 | 2.03 | 1.55 | 88 | 1012.0 |
| 20260506185533 | 9 | 334 | 0.0 | 4.8 | 0.00 | 2.11 | 1.55 | 88 | 1012.0 |
| 20260506185031 | 9 | 69 | 0.0 | 3.2 | 0.00 | 2.11 | 1.55 | 88 | 1011.9 |
| 20260506184531 | 9 | 296 | 0.0 | 6.4 | 0.00 | 2.11 | 1.55 | 88 | 1011.9 |
| 20260506184032 | 9 | 305 | 1.6 | 6.4 | 0.00 | 2.11 | 1.55 | 88 | 1011.9 |
| 20260506183529 | 9 | 323 | 0.0 | 6.4 | 0.00 | 2.11 | 1.55 | 88 | 1011.8 |
| 20260506183029 | 10 | 44 | 0.0 | 4.8 | 0.00 | 2.11 | 1.55 | 88 | 1011.8 |
| 20260506182527 | 10 | 141 | 0.0 | 1.6 | 0.00 | 2.11 | 1.55 | 88 | 1011.8 |
| 20260506182027 | 10 | 138 | 0.0 | 4.8 | 0.00 | 2.11 | 1.55 | 88 | 1011.7 |
| 20260506181528 | 10 | 138 | 0.0 | 4.8 | 0.00 | 2.11 | 1.55 | 88 | 1011.5 |
| 20260506181027 | 10 | 53 | 0.0 | 3.2 | 0.00 | 2.11 | 1.55 | 87 | 1011.5 |
| 20260506180525 | 10 | 69 | 0.0 | 4.8 | 0.00 | 2.11 | 1.55 | 87 | 1011.4 |
| 20260506180025 | 10 | 311 | 0.0 | 4.8 | 0.00 | 2.11 | 1.55 | 87 | 1011.3 |
| 20260506175525 | 10 | 323 | 0.0 | 6.4 | 0.00 | 2.13 | 1.55 | 87 | 1011.3 |
| 20260506175027 | 10 | 63 | 1.6 | 6.4 | 0.00 | 2.13 | 1.55 | 87 | 1011.2 |
| 20260506174525 | 10 | 350 | 0.0 | 4.8 | 0.00 | 2.13 | 1.55 | 87 | 1011.1 |
| 20260506174024 | 10 | 13 | 0.0 | 4.8 | 0.00 | 2.13 | 1.55 | 87 | 1011.1 |
| 20260506173523 | 10 | 302 | 0.0 | 4.8 | 0.00 | 2.13 | 1.55 | 87 | 1011.1 |
| 20260506173016 | 10 | 15 | 0.0 | 3.2 | 0.00 | 2.13 | 1.55 | 87 | 1011.0 |
| 20260506172516 | 10 | 40 | 0.0 | 3.2 | 0.00 | 2.13 | 1.55 | 87 | 1011.0 |
| 20260506172012 | 10 | 300 | 0.0 | 1.6 | 0.00 | 2.13 | 1.55 | 88 | 1010.9 |
| 20260506171510 | 10 | 320 | 0.0 | 1.6 | 0.00 | 2.13 | 1.55 | 88 | 1010.9 |
| 20260506171007 | 10 | 320 | 0.0 | 1.6 | 0.00 | 2.13 | 1.55 | 88 | 1010.9 |
| 20260506170507 | 10 | 320 | 0.0 | 1.6 | 0.00 | 2.13 | 1.55 | 88 | 1010.9 |
| 20260506170007 | 10 | 320 | 0.0 | 1.6 | 0.00 | 2.13 | 1.55 | 88 | 1010.8 |
| 20260506165508 | 10 | 320 | 0.0 | 1.6 | 0.00 | 2.13 | 1.55 | 88 | 1010.8 |
| 20260506165009 | 10 | 320 | 0.0 | 1.6 | 0.00 | 2.13 | 1.55 | 88 | 1010.8 |
| 20260506164508 | 10 | 320 | 0.0 | 3.2 | 0.00 | 2.13 | 1.55 | 88 | 1010.8 |
| 20260506164008 | 10 | 320 | 0.0 | 8.0 | 0.00 | 2.13 | 1.55 | 88 | 1010.8 |
| 20260506163507 | 10 | 311 | 0.0 | 8.0 | 0.00 | 2.13 | 1.55 | 88 | 1010.7 |
| 20260506163017 | 10 | 34 | 0.0 | 1.6 | 0.00 | 2.13 | 1.55 | 88 | 1010.7 |
| 20260506162504 | 10 | 70 | 0.0 | 3.2 | 0.00 | 2.13 | 1.55 | 88 | 1010.7 |
| 20260506162003 | 10 | 70 | 0.0 | 3.2 | 0.00 | 2.13 | 1.55 | 88 | 1010.7 |
| 20260506161504 | 10 | 313 | 0.0 | 3.2 | 0.00 | 2.13 | 1.55 | 88 | 1010.7 |
| 20260506161004 | 10 | 104 | 0.0 | 4.8 | 0.00 | 2.13 | 1.55 | 88 | 1010.7 |
| 20260506160507 | 10 | 326 | 0.0 | 4.8 | 0.00 | 2.13 | 1.55 | 88 | 1010.7 |
| 20260506160007 | 10 | 331 | 0.0 | 3.2 | 0.00 | 2.13 | 1.55 | 88 | 1010.7 |
| 20260506155502 | 10 | 74 | 0.0 | 6.4 | 0.00 | 2.13 | 1.55 | 88 | 1010.6 |
| 20260506155001 | 10 | 355 | 0.0 | 6.4 | 0.00 | 2.13 | 1.55 | 88 | 1010.6 |
| 20260506154502 | 10 | 22 | 0.0 | 8.0 | 0.00 | 2.13 | 1.55 | 88 | 1010.6 |
| 20260506154005 | 10 | 76 | 3.2 | 8.0 | 0.00 | 2.13 | 1.55 | 88 | 1010.6 |
| 20260506153501 | 10 | 83 | 0.0 | 11.3 | 0.00 | 2.13 | 1.55 | 88 | 1010.5 |
| 20260506153002 | 10 | 96 | 1.6 | 12.9 | 0.00 | 2.13 | 1.55 | 88 | 1010.5 |
| 20260506152501 | 10 | 275 | 3.2 | 12.9 | 0.00 | 2.13 | 1.55 | 88 | 1010.5 |
| 20260506152001 | 10 | 59 | 3.2 | 12.9 | 0.00 | 2.13 | 1.55 | 88 | 1010.5 |
| 20260506151502 | 10 | 76 | 1.6 | 9.7 | 0.00 | 2.13 | 1.55 | 88 | 1010.4 |
| 20260506151001 | 10 | 304 | 3.2 | 14.5 | 0.00 | 2.13 | 1.55 | 88 | 1010.4 |
| 20260506150502 | 10 | 80 | 1.6 | 14.5 | 0.00 | 2.13 | 1.55 | 88 | 1010.4 |
| 20260506150002 | 10 | 9 | 3.2 | 9.7 | 0.00 | 2.13 | 1.55 | 88 | 1010.4 |
| 20260506145505 | 10 | 336 | 1.6 | 6.4 | 0.00 | 2.13 | 1.55 | 88 | 1010.4 |
| 20260506145101 | 10 | 323 | 1.6 | 6.4 | 0.00 | 2.13 | 1.55 | 88 | 1010.4 |
| 20260506144555 | 10 | 341 | 1.6 | 11.3 | 0.00 | 2.13 | 1.55 | 88 | 1010.4 |
| 20260506144051 | 10 | 302 | 1.6 | 11.3 | 0.00 | 2.13 | 1.55 | 88 | 1010.4 |
| 20260506143550 | 10 | 321 | 1.6 | 9.7 | 0.00 | 2.13 | 1.55 | 88 | 1010.4 |
| 20260506143053 | 10 | 302 | 1.6 | 11.3 | 0.00 | 2.13 | 1.55 | 87 | 1010.4 |
| 20260506142540 | 10 | 333 | 1.6 | 8.0 | 0.03 | 2.13 | 1.55 | 87 | 1010.3 |
| 20260506142034 | 10 | 31 | 0.0 | 8.0 | 0.03 | 2.13 | 1.55 | 87 | 1010.4 |
| 20260506141535 | 10 | 323 | 1.6 | 8.0 | 0.03 | 2.13 | 1.55 | 87 | 1010.4 |
| 20260506141031 | 10 | 303 | 1.6 | 8.0 | 0.03 | 2.13 | 1.55 | 87 | 1010.5 |
| 20260506140525 | 10 | 11 | 0.0 | 9.7 | 0.03 | 2.13 | 1.55 | 86 | 1010.5 |
| 20260506140018 | 10 | 323 | 0.0 | 12.9 | 0.03 | 2.13 | 1.55 | 86 | 1010.5 |
| 20260506135510 | 10 | 83 | 1.6 | 12.9 | 0.03 | 2.13 | 1.55 | 86 | 1010.5 |
| 20260506135013 | 10 | 216 | 0.0 | 6.4 | 0.03 | 2.13 | 1.55 | 86 | 1010.4 |
| 20260506134507 | 10 | 329 | 1.6 | 12.9 | 0.03 | 2.13 | 1.55 | 86 | 1010.4 |
| 20260506134004 | 9 | 351 | 0.0 | 12.9 | 0.03 | 2.13 | 1.55 | 86 | 1010.5 |
| 20260506133501 | 9 | 317 | 1.6 | 9.7 | 0.03 | 2.13 | 1.55 | 86 | 1010.4 |
| 20260506133002 | 9 | 266 | 1.6 | 12.9 | 0.03 | 2.13 | 1.55 | 86 | 1010.5 |
| 20260506132609 | 9 | 267 | 1.6 | 12.9 | 0.00 | 2.11 | 1.55 | 86 | 1010.4 |
| 20260506132057 | 9 | 340 | 0.0 | 12.9 | 0.00 | 2.11 | 1.55 | 86 | 1010.5 |
| 20260506131553 | 9 | 299 | 3.2 | 9.7 | 0.00 | 2.11 | 1.55 | 86 | 1010.4 |
| 20260506131044 | 9 | 336 | 0.0 | 9.7 | 0.00 | 2.11 | 1.55 | 86 | 1010.3 |
| 20260506130544 | 10 | 294 | 3.2 | 11.3 | 0.00 | 2.11 | 1.55 | 86 | 1010.3 |
| 20260506130041 | 10 | 315 | 1.6 | 8.0 | 0.00 | 2.11 | 1.55 | 86 | 1010.2 |
| 20260506125542 | 10 | 66 | 1.6 | 9.7 | 0.00 | 2.11 | 1.55 | 86 | 1010.2 |
| 20260506125033 | 10 | 345 | 0.0 | 6.4 | 0.00 | 2.11 | 1.55 | 85 | 1010.1 |
| 20260506124529 | 10 | 72 | 0.0 | 6.4 | 0.00 | 2.11 | 1.55 | 85 | 1010.0 |
| 20260506124027 | 10 | 235 | 3.2 | 8.0 | 0.00 | 2.11 | 1.55 | 85 | 1010.0 |
| 20260506123525 | 10 | 315 | 1.6 | 12.9 | 0.03 | 2.11 | 1.55 | 85 | 1009.9 |
| 20260506123024 | 10 | 313 | 4.8 | 12.9 | 0.03 | 2.11 | 1.55 | 85 | 1009.9 |
| 20260506122523 | 10 | 342 | 3.2 | 14.5 | 0.03 | 2.11 | 1.55 | 85 | 1009.9 |
| 20260506122017 | 10 | 338 | 4.8 | 14.5 | 0.05 | 2.11 | 1.55 | 85 | 1009.9 |
| 20260506121511 | 10 | 323 | 1.6 | 11.3 | 0.05 | 2.11 | 1.55 | 85 | 1009.9 |
| 20260506121005 | 10 | 69 | 1.6 | 11.3 | 0.05 | 2.11 | 1.55 | 85 | 1009.8 |
| 20260506120503 | 10 | 326 | 4.8 | 14.5 | 0.05 | 2.11 | 1.55 | 85 | 1009.8 |
| 20260506120002 | 10 | 281 | 1.6 | 14.5 | 0.05 | 2.11 | 1.55 | 85 | 1009.7 |
| 20260506115506 | 10 | 325 | 3.2 | 14.5 | 0.05 | 2.11 | 1.55 | 84 | 1009.5 |
| 20260506115002 | 10 | 336 | 1.6 | 9.7 | 0.05 | 2.11 | 1.55 | 84 | 1009.5 |
| 20260506114504 | 10 | 304 | 4.8 | 9.7 | 0.05 | 2.11 | 1.55 | 85 | 1009.5 |
| 20260506114003 | 10 | 313 | 1.6 | 8.0 | 0.03 | 2.11 | 1.52 | 85 | 1009.5 |
| 20260506113502 | 10 | 329 | 0.0 | 12.9 | 0.03 | 2.11 | 1.52 | 84 | 1009.6 |
| 20260506113004 | 10 | 307 | 3.2 | 12.9 | 0.03 | 2.11 | 1.52 | 84 | 1009.5 |
| 20260506112503 | 10 | 355 | 3.2 | 12.9 | 0.03 | 2.11 | 1.52 | 84 | 1009.5 |
| 20260506112002 | 10 | 331 | 3.2 | 14.5 | 0.00 | 2.08 | 1.50 | 83 | 1009.4 |
| 20260506111559 | 10 | 333 | 4.8 | 14.5 | 0.00 | 2.08 | 1.50 | 84 | 1009.4 |
| 20260506111059 | 10 | 311 | 4.8 | 12.9 | 0.03 | 2.08 | 1.50 | 83 | 1009.4 |
| 20260506110555 | 10 | 317 | 3.2 | 14.5 | 0.03 | 2.08 | 1.50 | 82 | 1009.4 |
| 20260506110056 | 10 | 331 | 3.2 | 14.5 | 0.03 | 2.08 | 1.50 | 82 | 1009.4 |
| 20260506105548 | 10 | 297 | 3.2 | 8.0 | 0.05 | 2.08 | 1.50 | 81 | 1009.4 |
| 20260506105042 | 10 | 44 | 1.6 | 8.0 | 0.05 | 2.08 | 1.50 | 80 | 1009.4 |
| 20260506104534 | 10 | 82 | 0.0 | 9.7 | 0.05 | 2.08 | 1.50 | 81 | 1009.4 |
| 20260506104032 | 10 | 321 | 1.6 | 9.7 | 0.05 | 2.08 | 1.50 | 80 | 1009.4 |
| 20260506103527 | 10 | 346 | 1.6 | 9.7 | 0.05 | 2.08 | 1.50 | 80 | 1009.5 |
| 20260506103027 | 10 | 89 | 3.2 | 12.9 | 0.05 | 2.08 | 1.50 | 79 | 1009.4 |
| 20260506102522 | 10 | 308 | 3.2 | 8.0 | 0.05 | 2.08 | 1.50 | 79 | 1009.3 |
| 20260506102010 | 10 | 306 | 0.0 | 8.0 | 0.05 | 2.08 | 1.50 | 79 | 1009.3 |
| 20260506101503 | 10 | 310 | 3.2 | 8.0 | 0.08 | 2.08 | 1.50 | 79 | 1009.3 |
| 20260506101019 | 10 | 312 | 1.6 | 8.0 | 0.05 | 2.06 | 1.45 | 79 | 1009.3 |
| 20260506100512 | 10 | 355 | 0.0 | 8.0 | 0.05 | 2.06 | 1.45 | 79 | 1009.2 |
| 20260506100001 | 10 | 311 | 0.0 | 8.0 | 0.05 | 2.06 | 1.45 | 79 | 1009.2 |
| 20260506095559 | 10 | 311 | 0.0 | 8.0 | 0.05 | 2.03 | 1.42 | 79 | 1009.1 |
| 20260506095045 | 10 | 145 | 1.6 | 6.4 | 0.05 | 2.03 | 1.42 | 79 | 1009.2 |
| 20260506094552 | 10 | 39 | 1.6 | 6.4 | 0.05 | 2.03 | 1.42 | 79 | 1009.2 |
| 20260506094032 | 10 | 316 | 1.6 | 6.4 | 0.05 | 2.03 | 1.42 | 79 | 1009.1 |
| 20260506093532 | 10 | 315 | 0.0 | 8.0 | 0.08 | 2.03 | 1.42 | 79 | 1009.1 |
| 20260506093030 | 10 | 319 | 1.6 | 8.0 | 0.05 | 2.03 | 1.42 | 79 | 1009.0 |
| 20260506092525 | 10 | 122 | 1.6 | 6.4 | 0.05 | 2.03 | 1.42 | 79 | 1009.0 |
| 20260506092026 | 9 | 318 | 0.0 | 6.4 | 0.08 | 2.03 | 1.42 | 79 | 1009.0 |
| 20260506091524 | 9 | 332 | 1.6 | 6.4 | 0.08 | 2.01 | 1.42 | 79 | 1009.0 |
| 20260506091017 | 9 | 315 | 0.0 | 6.4 | 0.08 | 2.01 | 1.42 | 79 | 1009.0 |
| 20260506090515 | 9 | 315 | 0.0 | 6.4 | 0.08 | 2.01 | 1.42 | 79 | 1009.0 |
| 20260506090009 | 9 | 315 | 1.6 | 6.4 | 0.08 | 2.01 | 1.42 | 79 | 1008.9 |
| 20260506085502 | 9 | 289 | 0.0 | 8.0 | 0.08 | 1.98 | 1.40 | 79 | 1008.9 |
| 20260506085003 | 9 | 290 | 1.6 | 8.0 | 0.08 | 1.98 | 1.40 | 79 | 1008.9 |
| 20260506084501 | 9 | 317 | 0.0 | 6.4 | 0.10 | 1.98 | 1.40 | 79 | 1008.9 |
| 20260506084058 | 9 | 317 | 0.0 | 9.7 | 0.10 | 1.98 | 1.40 | 79 | 1008.9 |
| 20260506083549 | 9 | 311 | 1.6 | 11.3 | 0.08 | 1.96 | 1.37 | 79 | 1008.7 |
| 20260506083046 | 9 | 311 | 1.6 | 8.0 | 0.08 | 1.96 | 1.37 | 79 | 1008.7 |
| 20260506082548 | 9 | 330 | 0.0 | 8.0 | 0.10 | 1.96 | 1.37 | 79 | 1008.6 |
| 20260506082043 | 9 | 95 | 1.6 | 9.7 | 0.08 | 1.93 | 1.37 | 79 | 1008.6 |
| 20260506081539 | 9 | 292 | 0.0 | 9.7 | 0.08 | 1.93 | 1.35 | 79 | 1008.5 |
| 20260506081035 | 9 | 317 | 1.6 | 9.7 | 0.08 | 1.93 | 1.35 | 79 | 1008.5 |
| 20260506080532 | 9 | 73 | 3.2 | 9.7 | 0.08 | 1.93 | 1.35 | 79 | 1008.5 |